FW4559 Weather Reports


time (UTC)temp
C
wind
direction
speed
KPH
gust
KPH
rain 1hr
cm
rain 24hr
cm
rain mn
cm
humidity
%
barometer
mb
20260831010547 19 222 0.0 0.0 0.00 0.00 0.00 94 1019.9
20260831010114 19 222 0.0 0.0 0.00 0.00 0.00 94 1019.9
20260831005545 19 222 0.0 0.0 0.00 0.00 0.00 94 1019.8
20260831005045 19 222 0.0 0.0 0.00 0.00 0.00 94 1019.6
20260831004547 19 222 0.0 0.0 0.00 0.00 0.00 93 1019.5
20260831004045 20 222 0.0 0.0 0.00 0.00 0.00 93 1019.7
20260831003544 20 222 0.0 0.0 0.00 0.00 0.00 93 1019.6
20260831003045 20 221 0.0 0.0 0.00 0.00 0.00 92 1019.6
20260831002545 20 221 0.0 0.0 0.00 0.00 0.00 92 1019.5
20260831002045 20 222 0.0 0.0 0.00 0.00 0.00 91 1019.6
20260831001545 20 222 0.0 0.0 0.00 0.00 0.00 91 1019.5
20260831001046 20 221 0.0 0.0 0.00 0.00 0.00 90 1019.5
20260831000543 21 222 0.0 0.0 0.00 0.00 0.00 90 1019.5
20260831000056 21 221 0.0 0.0 0.00 0.00 0.00 89 1019.4
20260830235542 21 222 0.0 0.0 0.00 0.00 0.00 89 1019.5
20260830235042 21 222 0.0 0.0 0.00 0.00 0.00 88 1019.6
20260830234542 21 221 0.0 0.0 0.00 0.00 0.00 87 1019.5
20260830234043 22 221 0.0 0.0 0.00 0.00 0.00 87 1019.5
20260830233543 22 222 0.0 0.0 0.00 0.00 0.00 86 1019.4
20260830233043 22 221 0.0 0.0 0.00 0.00 0.00 85 1019.3
20260830232548 22 222 0.0 0.0 0.00 0.00 0.00 85 1019.3
20260830232045 22 221 0.0 0.0 0.00 0.00 0.00 84 1019.2
20260830231544 22 222 0.0 3.2 0.00 0.00 0.00 83 1019.3
20260830231041 22 222 0.0 3.2 0.00 0.00 0.00 83 1019.4
20260830230541 23 170 0.0 3.2 0.00 0.00 0.00 82 1019.4
20260830230050 23 170 0.0 3.2 0.00 0.00 0.00 81 1019.4
20260830225541 23 217 0.0 4.8 0.00 0.00 0.00 81 1019.3
20260830225040 23 233 0.0 4.8 0.00 0.00 0.00 81 1019.2
20260830224540 23 158 1.6 4.8 0.00 0.00 0.00 81 1019.3
20260830224040 23 189 0.0 4.8 0.00 0.00 0.00 83 1019.2
20260830223542 23 188 0.0 4.8 0.00 0.00 0.00 82 1019.2
20260830223059 23 126 0.0 3.2 0.00 0.00 0.00 84 1019.3
20260830222542 22 195 0.0 3.2 0.00 0.00 0.00 85 1019.2
20260830222039 22 181 0.0 3.2 0.00 0.00 0.00 84 1019.2
20260830221539 22 219 0.0 1.6 0.00 0.00 0.00 84 1019.3
20260830221041 22 119 0.0 3.2 0.00 0.00 0.00 85 1019.4
20260830220539 22 191 0.0 3.2 0.00 0.00 0.00 84 1019.4
20260830220042 22 153 0.0 3.2 0.00 0.00 0.00 84 1019.4
20260830215539 22 226 0.0 3.2 0.00 0.00 0.00 84 1019.4
20260830215040 23 179 0.0 3.2 0.00 0.00 0.00 83 1019.4
20260830214538 23 179 1.6 3.2 0.00 0.00 0.00 83 1019.3
20260830214037 23 167 0.0 3.2 0.00 0.00 0.00 82 1019.4
20260830213538 23 169 0.0 3.2 0.00 0.00 0.00 82 1019.4
20260830213039 23 116 0.0 3.2 0.00 0.00 0.00 82 1019.3
20260830212537 23 134 0.0 6.4 0.00 0.00 0.00 82 1019.5
20260830212038 23 131 0.0 6.4 0.00 0.00 0.00 81 1019.4
20260830211537 23 153 0.0 3.2 0.00 0.00 0.00 81 1019.4
20260830211038 23 143 0.0 9.7 0.00 0.00 0.00 81 1019.3
20260830210538 23 153 0.0 9.7 0.00 0.00 0.00 80 1019.4
20260830210038 23 163 0.0 4.8 0.00 0.00 0.00 79 1019.3
20260830205536 23 139 0.0 4.8 0.00 0.00 0.00 79 1019.3
20260830205036 23 136 0.0 4.8 0.00 0.00 0.00 78 1019.3
20260830204537 23 139 1.6 4.8 0.00 0.00 0.00 77 1019.3
20260830204037 24 164 0.0 3.2 0.00 0.00 0.00 78 1019.4
20260830203535 24 208 0.0 6.4 0.00 0.00 0.00 77 1019.4
20260830203037 24 118 0.0 6.4 0.00 0.00 0.00 77 1019.4
20260830202538 24 188 0.0 3.2 0.00 0.00 0.00 77 1019.3
20260830202034 24 159 0.0 3.2 0.00 0.00 0.00 78 1019.4
20260830201537 24 123 0.0 3.2 0.00 0.00 0.00 77 1019.5
20260830201034 25 158 0.0 3.2 0.00 0.00 0.00 76 1019.5
20260830200533 25 195 0.0 4.8 0.00 0.00 0.00 76 1019.6
20260830200034 25 214 0.0 4.8 0.00 0.00 0.00 76 1019.6
20260830195535 25 127 0.0 4.8 0.00 0.00 0.00 74 1019.6
20260830195034 25 210 0.0 1.6 0.00 0.00 0.00 77 1019.6
20260830194541 25 191 0.0 3.2 0.00 0.00 0.00 76 1019.6
20260830194033 25 191 0.0 3.2 0.00 0.00 0.00 77 1019.6
20260830193532 25 167 0.0 6.4 0.00 0.00 0.00 76 1019.6
20260830193035 25 158 1.6 6.4 0.00 0.00 0.00 76 1019.6
20260830192530 25 185 1.6 4.8 0.00 0.00 0.00 75 1019.8
20260830192030 25 193 0.0 3.2 0.00 0.00 0.00 75 1019.9
20260830191529 25 143 0.0 3.2 0.00 0.00 0.00 75 1020.0
20260830191028 25 168 0.0 3.2 0.00 0.00 0.00 74 1019.9
20260830190527 25 157 0.0 6.4 0.00 0.00 0.00 74 1020.0
20260830190028 25 128 1.6 6.4 0.00 0.00 0.00 73 1020.0
20260830185529 25 182 0.0 9.7 0.00 0.00 0.00 73 1020.0
20260830185027 26 110 1.6 11.3 0.00 0.00 0.00 70 1020.2
20260830184529 26 95 3.2 9.7 0.00 0.00 0.00 67 1020.2
20260830184024 27 233 1.6 11.3 0.00 0.00 0.00 68 1020.3
20260830183525 27 207 3.2 11.3 0.00 0.00 0.00 68 1020.4
20260830183025 27 167 4.8 11.3 0.00 0.00 0.00 66 1020.4
20260830182524 27 126 3.2 9.7 0.00 0.00 0.00 65 1020.5
20260830182022 28 149 1.6 9.7 0.00 0.00 0.00 67 1020.4
20260830181521 27 203 1.6 16.1 0.00 0.00 0.00 67 1020.6
20260830181021 27 120 4.8 16.1 0.00 0.00 0.00 66 1020.6
20260830180520 27 183 1.6 6.4 0.00 0.00 0.00 66 1020.8
20260830180018 27 227 1.6 6.4 0.00 0.00 0.00 66 1020.9
20260830175519 27 195 1.6 6.4 0.00 0.00 0.00 64 1020.9
20260830175017 27 202 0.0 8.0 0.00 0.00 0.00 67 1021.1
20260830174520 27 115 1.6 9.7 0.00 0.00 0.00 69 1021.1
20260830174016 27 138 0.0 9.7 0.00 0.00 0.00 68 1021.2
20260830173516 27 198 3.2 11.3 0.00 0.00 0.00 66 1021.3
20260830173015 27 169 4.8 11.3 0.00 0.00 0.00 67 1021.4
20260830172515 27 231 1.6 4.8 0.00 0.00 0.00 66 1021.4
20260830172018 27 179 0.0 3.2 0.00 0.00 0.00 68 1021.4
20260830171512 27 189 0.0 8.0 0.00 0.00 0.00 69 1021.4
20260830171012 27 219 3.2 8.0 0.00 0.00 0.00 68 1021.5
20260830170509 26 262 1.6 6.4 0.00 0.00 0.00 69 1021.6
20260830170012 26 178 1.6 8.0 0.00 0.00 0.00 70 1021.7
20260830165509 26 177 3.2 14.5 0.00 0.00 0.00 70 1021.8
20260830165012 27 201 3.2 14.5 0.00 0.00 0.00 68 1021.8
20260830164509 26 222 1.6 6.4 0.00 0.00 0.00 71 1021.9
20260830164008 26 138 1.6 6.4 0.00 0.00 0.00 69 1021.9
20260830163508 26 239 1.6 6.4 0.00 0.00 0.00 67 1022.0
20260830163008 26 224 1.6 4.8 0.00 0.00 0.00 68 1022.0
20260830162509 26 117 0.0 6.4 0.00 0.00 0.00 70 1022.0
20260830162007 26 184 1.6 6.4 0.00 0.00 0.00 69 1022.1
20260830161503 25 135 1.6 4.8 0.00 0.00 0.00 72 1022.2
20260830161002 24 146 0.0 8.0 0.00 0.00 0.00 75 1022.2
20260830160502 23 217 1.6 8.0 0.00 0.00 0.00 74 1022.2
20260830160001 24 86 1.6 6.4 0.00 0.00 0.00 73 1022.2
20260830155501 25 350 1.6 6.4 0.00 0.00 0.00 70 1022.3
20260830155002 25 122 0.0 3.2 0.00 0.00 0.00 72 1022.4
20260830154601 25 123 1.6 6.4 0.00 0.00 0.00 71 1022.5
20260830154100 25 147 1.6 9.7 0.00 0.00 0.00 75 1022.5
20260830153558 24 172 1.6 9.7 0.00 0.00 0.00 76 1022.5
20260830153058 24 213 1.6 6.4 0.00 0.00 0.00 75 1022.5
20260830152555 23 210 0.0 4.8 0.00 0.00 0.00 78 1022.5
20260830152054 23 184 1.6 4.8 0.00 0.00 0.00 79 1022.6
20260830151600 23 195 1.6 3.2 0.00 0.00 0.00 79 1022.6
20260830151052 22 186 0.0 4.8 0.00 0.00 0.00 81 1022.6
20260830150551 22 179 0.0 4.8 0.00 0.00 0.00 81 1022.7
20260830150051 22 137 1.6 4.8 0.00 0.00 0.00 81 1022.7
20260830145550 22 167 1.6 4.8 0.00 0.00 0.00 81 1022.7
20260830145047 22 212 0.0 4.8 0.00 0.00 0.00 83 1022.6
20260830144549 22 233 0.0 4.8 0.00 0.00 0.00 84 1022.6
20260830144046 21 219 0.0 1.6 0.00 0.00 0.00 86 1022.6
20260830143544 21 219 0.0 0.0 0.00 0.00 0.00 87 1022.6
20260830143044 21 219 0.0 0.0 0.00 0.00 0.00 88 1022.6
20260830142541 21 148 0.0 0.0 0.00 0.00 0.00 89 1022.6
20260830142044 20 148 0.0 3.2 0.00 0.00 0.00 90 1022.5
20260830141542 20 146 0.0 3.2 0.00 0.00 0.00 90 1022.5
20260830141038 20 136 0.0 1.6 0.00 0.00 0.00 91 1022.5
20260830140535 20 145 0.0 1.6 0.00 0.00 0.00 93 1022.5
20260830140034 20 136 0.0 0.0 0.00 0.00 0.00 94 1022.4
20260830135538 19 111 0.0 0.0 0.00 0.00 0.00 94 1022.5
20260830135034 19 111 0.0 0.0 0.00 0.00 0.00 94 1022.5
20260830134541 19 94 0.0 3.2 0.00 0.00 0.00 95 1022.6
20260830134034 19 120 0.0 3.2 0.00 0.00 0.00 95 1022.5
20260830133535 19 214 0.0 3.2 0.00 0.00 0.00 96 1022.5
20260830133034 19 213 0.0 0.0 0.00 0.00 0.00 96 1022.6
20260830132536 18 213 0.0 0.0 0.00 0.00 0.00 96 1022.7
20260830132035 18 212 0.0 0.0 0.00 0.00 0.00 96 1022.8
20260830131537 18 213 0.0 0.0 0.00 0.00 0.00 96 1022.9
20260830131032 18 212 0.0 0.0 0.00 0.00 0.00 96 1022.9
20260830125554 18 213 0.0 0.0 0.00 0.03 0.00 96 1022.7
20260830125057 17 213 0.0 0.0 0.00 0.03 0.00 96 1022.7
20260830124552 17 213 0.0 0.0 0.00 0.03 0.00 96 1022.8
20260830124054 17 213 0.0 0.0 0.00 0.03 0.00 96 1022.8
20260830123552 17 213 0.0 0.0 0.00 0.03 0.00 96 1022.8
20260830123056 17 213 0.0 0.0 0.00 0.03 0.00 96 1022.8
20260830122551 17 213 0.0 0.0 0.00 0.03 0.00 96 1022.7
20260830122050 17 213 0.0 0.0 0.00 0.03 0.00 96 1022.6
20260830121555 17 213 0.0 0.0 0.00 0.03 0.00 96 1022.5
20260830121051 17 213 0.0 0.0 0.00 0.03 0.00 96 1022.5
20260830120549 17 120 0.0 0.0 0.00 0.03 0.00 96 1022.3
20260830120049 17 120 0.0 0.0 0.00 0.03 0.00 96 1022.2
20260830115549 17 120 0.0 0.0 0.00 0.03 0.00 96 1022.1
20260830115049 17 120 0.0 0.0 0.00 0.03 0.00 96 1022.0
20260830114548 17 120 0.0 0.0 0.00 0.03 0.00 96 1022.0
20260830114047 17 120 0.0 0.0 0.00 0.03 0.00 96 1021.9
20260830113547 17 120 0.0 0.0 0.00 0.03 0.00 96 1021.8
20260830113046 17 120 0.0 0.0 0.00 0.03 0.00 96 1021.8
20260830112546 17 120 0.0 0.0 0.00 0.03 0.00 96 1021.8
20260830112049 17 120 0.0 0.0 0.00 0.03 0.00 96 1021.8
20260830111546 16 120 0.0 0.0 0.00 0.03 0.00 96 1021.8
20260830111050 16 120 0.0 0.0 0.00 0.03 0.00 96 1021.7
20260830110548 16 120 0.0 0.0 0.00 0.03 0.00 96 1021.6
20260830110057 16 120 0.0 0.0 0.00 0.03 0.00 96 1021.6
20260830105544 16 120 0.0 0.0 0.00 0.03 0.00 96 1021.5
20260830105045 16 120 0.0 0.0 0.00 0.03 0.00 96 1021.4
20260830104545 16 120 0.0 0.0 0.00 0.03 0.00 96 1021.5
20260830104044 16 120 0.0 0.0 0.00 0.03 0.00 96 1021.4
20260830103544 16 120 0.0 0.0 0.00 0.03 0.00 96 1021.3
20260830103044 16 120 0.0 0.0 0.00 0.03 0.00 96 1021.3
20260830102544 16 120 0.0 0.0 0.00 0.03 0.00 96 1021.2
20260830102042 17 120 0.0 0.0 0.00 0.03 0.00 96 1021.2
20260830101541 17 120 0.0 0.0 0.00 0.03 0.00 96 1021.2
20260830101043 17 120 0.0 0.0 0.00 0.03 0.00 96 1021.2
20260830100541 17 120 0.0 0.0 0.00 0.03 0.00 96 1021.2
20260830100050 17 120 0.0 0.0 0.00 0.03 0.00 96 1021.2
20260830095544 17 120 0.0 0.0 0.00 0.03 0.00 96 1021.3
20260830095041 17 120 0.0 0.0 0.00 0.03 0.00 96 1021.3
20260830094539 17 120 0.0 0.0 0.00 0.03 0.00 96 1021.3
20260830094039 17 120 0.0 0.0 0.00 0.03 0.00 96 1021.3
20260830093539 17 120 0.0 0.0 0.00 0.03 0.00 96 1021.2
20260830093039 17 120 0.0 0.0 0.00 0.03 0.00 96 1021.3
20260830092539 17 120 0.0 0.0 0.00 0.03 0.00 96 1021.3
20260830092040 17 120 0.0 0.0 0.00 0.03 0.00 96 1021.3
20260830091541 17 120 0.0 0.0 0.00 0.03 0.00 96 1021.3
20260830091039 17 120 0.0 0.0 0.00 0.03 0.00 96 1021.4
20260830090541 17 120 0.0 0.0 0.00 0.03 0.00 96 1021.5
20260830090038 17 120 0.0 0.0 0.00 0.03 0.00 96 1021.5
20260830085537 17 120 0.0 0.0 0.00 0.03 0.00 96 1021.5
20260830085037 17 120 0.0 0.0 0.00 0.03 0.00 96 1021.5
20260830084611 17 120 0.0 0.0 0.00 0.03 0.00 96 1021.4
20260830084036 17 120 0.0 0.0 0.00 0.03 0.00 96 1021.4
20260830083535 17 120 0.0 0.0 0.00 0.03 0.00 96 1021.4
20260830083037 17 120 0.0 0.0 0.00 0.03 0.00 96 1021.4
20260830082537 17 120 0.0 0.0 0.00 0.03 0.00 96 1021.4
20260830082034 17 120 0.0 0.0 0.00 0.03 0.00 96 1021.4
20260830081540 17 120 0.0 0.0 0.00 0.03 0.00 96 1021.4
20260830081034 17 120 0.0 0.0 0.00 0.03 0.00 96 1021.4
20260830080533 17 120 0.0 0.0 0.00 0.03 0.00 96 1021.4
20260830080033 17 120 0.0 1.6 0.00 0.03 0.00 96 1021.4
20260830075534 17 228 0.0 0.0 0.00 0.03 0.00 96 1021.4
20260830075035 17 228 0.0 0.0 0.00 0.03 0.00 96 1021.3
20260830074534 17 228 0.0 0.0 0.00 0.03 0.00 96 1021.4
20260830074029 17 228 0.0 1.6 0.00 0.03 0.00 96 1021.4
20260830073529 18 228 0.0 1.6 0.00 0.03 0.00 96 1021.4
20260830073029 17 227 0.0 1.6 0.00 0.03 0.00 96 1021.5
20260830072529 17 227 0.0 1.6 0.00 0.03 0.00 96 1021.5
20260830072029 17 227 0.0 0.0 0.00 0.03 0.00 95 1021.5
20260830071528 17 227 0.0 0.0 0.00 0.03 0.00 95 1021.5
20260830071028 18 227 0.0 0.0 0.00 0.03 0.00 96 1021.5
20260830070528 18 227 0.0 0.0 0.00 0.03 0.00 96 1021.4
20260830070027 18 227 0.0 0.0 0.00 0.03 0.00 96 1021.5
20260830065527 17 227 0.0 0.0 0.00 0.03 0.00 95 1021.5
20260830065027 17 227 0.0 0.0 0.00 0.03 0.00 95 1021.6
20260830064526 18 227 0.0 0.0 0.00 0.03 0.00 95 1021.7
20260830064025 18 227 0.0 0.0 0.00 0.03 0.00 95 1021.5
20260830063525 18 116 0.0 0.0 0.00 0.03 0.00 95 1021.6
20260830063024 18 116 0.0 0.0 0.00 0.03 0.00 95 1021.7
20260830062523 18 116 0.0 0.0 0.00 0.03 0.00 95 1021.6
20260830062021 18 116 0.0 0.0 0.00 0.03 0.00 94 1021.6
20260830061529 18 116 0.0 0.0 0.00 0.03 0.00 94 1021.7
20260830061019 18 116 0.0 0.0 0.00 0.03 0.00 94 1021.8
20260830060518 18 116 0.0 0.0 0.00 0.03 0.00 94 1021.9
20260830060018 18 116 0.0 0.0 0.00 0.03 0.00 94 1021.9
20260830055517 18 124 0.0 0.0 0.00 0.03 0.00 94 1022.1
20260830055016 18 124 0.0 3.2 0.00 0.03 0.00 94 1022.1
20260830054515 19 153 0.0 3.2 0.00 0.03 0.00 94 1022.0
20260830054014 19 207 0.0 1.6 0.00 0.03 0.00 93 1022.2
20260830053514 19 117 0.0 6.4 0.00 0.03 0.00 93 1022.2
20260830053013 19 184 0.0 6.4 0.00 0.03 0.00 93 1022.4
20260830052513 19 141 0.0 6.4 0.00 0.03 0.00 93 1022.4
20260830052013 19 146 0.0 3.2 0.00 0.03 0.00 93 1022.5
20260830051513 19 146 0.0 9.7 0.00 0.03 0.00 93 1022.6
20260830051012 19 143 1.6 9.7 0.00 0.03 0.00 93 1022.5
20260830050513 19 150 0.0 6.4 0.00 0.03 0.00 93 1022.5
20260830050011 19 137 0.0 4.8 0.00 0.03 0.00 93 1022.5
20260830045511 19 165 1.6 6.4 0.00 0.03 0.00 93 1022.5
20260830045112 19 181 0.0 6.4 0.00 0.03 0.00 93 1022.5
20260830044510 19 220 0.0 4.8 0.00 0.03 0.00 93 1022.5
20260830044014 19 148 0.0 8.0 0.00 0.03 0.00 93 1022.6
20260830043511 19 207 0.0 8.0 0.00 0.03 0.00 93 1022.6
20260830043010 19 202 1.6 6.4 0.00 0.03 0.00 93 1022.6
20260830042509 19 150 0.0 9.7 0.00 0.03 0.00 93 1022.7
20260830042009 19 200 1.6 12.9 0.00 0.03 0.00 93 1022.6
20260830041507 19 159 1.6 12.9 0.00 0.03 0.00 93 1022.6
20260830041008 19 165 3.2 11.3 0.00 0.03 0.00 93 1022.5
20260830040506 19 139 0.0 4.8 0.00 0.03 0.00 93 1022.4
20260830040005 19 113 0.0 8.0 0.00 0.03 0.00 93 1022.5
20260830035505 19 128 1.6 8.0 0.00 0.05 0.03 93 1022.4
20260830035006 19 195 0.0 9.7 0.00 0.05 0.03 93 1022.5
20260830034505 19 216 3.2 9.7 0.00 0.05 0.03 93 1022.5
20260830034005 19 205 1.6 4.8 0.00 0.05 0.03 92 1022.5
20260830033607 19 117 0.0 8.0 0.00 0.05 0.03 92 1022.6
20260830033104 19 186 0.0 8.0 0.00 0.05 0.03 92 1022.5
20260830032504 19 161 0.0 6.4 0.00 0.05 0.03 92 1022.5
20260830032005 19 138 0.0 6.4 0.00 0.05 0.03 91 1022.6
20260830031503 19 117 1.6 6.4 0.00 0.05 0.03 91 1022.5
20260830031003 20 153 0.0 3.2 0.00 0.05 0.03 92 1022.4
20260830030503 20 104 0.0 3.2 0.00 0.05 0.03 92 1022.4
20260830030002 20 141 0.0 1.6 0.00 0.05 0.03 92 1022.5
20260830025502 20 175 0.0 1.6 0.00 0.05 0.03 92 1022.3
20260830025001 20 186 0.0 3.2 0.00 0.05 0.03 92 1022.3
20260830024501 20 187 0.0 4.8 0.00 0.05 0.03 92 1022.3
20260830024001 20 100 0.0 4.8 0.00 0.05 0.03 92 1022.2
20260830023502 20 110 0.0 1.6 0.00 0.05 0.03 92 1022.2
20260830023002 20 124 0.0 4.8 0.00 0.05 0.03 92 1021.9
20260830022601 20 176 0.0 4.8 0.00 0.05 0.03 92 1021.8
20260830022101 19 186 0.0 3.2 0.00 0.05 0.03 93 1021.9
20260830021601 19 208 0.0 11.3 0.00 0.05 0.03 93 1022.0
20260830021103 19 109 1.6 11.3 0.00 0.05 0.03 94 1022.1
20260830020603 19 222 0.0 3.2 0.00 0.05 0.03 95 1022.0
20260830020103 19 106 0.0 4.8 0.00 0.05 0.03 95 1021.9
20260830015559 19 146 0.0 4.8 0.00 0.15 0.03 95 1021.9
20260830015058 19 183 0.0 4.8 0.00 0.15 0.03 95 1021.8
20260830014558 19 214 0.0 3.2 0.00 0.15 0.03 94 1021.8
20260830014058 19 133 0.0 0.0 0.00 0.15 0.03 94 1021.8
20260830013557 19 78 0.0 0.0 0.00 0.15 0.03 94 1021.6
20260830013058 19 78 0.0 0.0 0.00 0.15 0.03 94 1021.4
20260830012602 19 78 0.0 0.0 0.00 0.15 0.03 94 1021.4
20260830012057 19 78 0.0 0.0 0.00 0.15 0.03 93 1021.3
20260830011559 19 78 0.0 0.0 0.00 0.15 0.03 93 1021.1
20260830011057 19 78 0.0 0.0 0.00 0.15 0.03 93 1021.1